Temperature
16 16 16 16 15 15 15 15 14 14 14 13 13 13 13 13 12 12 12 12 12 12 11 11 11 11 11 11 11 11 11 11 10 11 11 10 11 10 11 11 10 10 10
16 16 16 15 15 15 15 14 14 14 14 13 13 13 13 12 12 12 12 12 11 11 11 11 11 11 11 11 10 10 10 10 10 10 10 10 10 10 10 10 10 10 10
16 16 15 15 15 15 14 14 14 13 13 13 13 13 13 12 12 12 12 12 11 11 11 11 11 11 10 10 10 10 10 10 10 10 10 10 10 10 10 10 10 10 10
16 15 15 15 15 14 14 14 13 13 13 13 13 12 12 12 12 12 12 11 11 11 11 11 11 10 10 10 10 10 10 10 9 9 9 9 9 9 9 9 9 9 9
15 15 15 14 14 14 14 13 13 13 13 13 12 12 12 12 12 11 11 11 11 11 11 10 10 10 10 10 10 10 10 9 9 9 9 9 9 9 9 9 9 9 9
15 15 14 14 14 13 13 13 13 13 12 12 12 12 12 11 11 11 11 11 11 10 10 10 10 10 9 9 9 9 9 9 9 9 9 9 9 8 8 8 8 8 8
15 14 14 14 13 13 13 13 12 12 12 12 12 12 11 11 11 11 11 10 10 10 10 10 10 9 9 9 9 9 9 9 8 8 8 8 8 8 8 8 8 8 8
14 14 14 13 13 12 12 12 12 12 12 11 11 11 11 11 11 11 10 10 10 10 10 9 9 9 9 9 9 9 8 8 8 8 8 8 8 7 8 8 7 7 8
14 14 13 13 12 12 12 12 11 11 11 11 11 11 11 11 10 10 10 10 10 10 9 9 9 9 9 8 8 8 8 8 8 8 8 7 7 7 7 7 7 7 7
13 13 13 12 12 12 12 11 11 11 11 10 10 10 10 10 10 10 10 10 9 9 9 9 9 9 8 8 8 8 8 8 8 8 7 7 7 7 7 7 7 7 7
13 12 12 12 12 12 11 11 11 10 10 10 10 10 10 10 10 9 9 9 9 9 9 9 8 8 8 8 8 8 7 7 7 7 7 7 7 7 7 7 7 6 6
12 12 12 11 11 11 11 11 10 10 10 10 9 9 9 9 9 9 9 9 9 8 8 8 8 8 8 7 7 7 7 7 7 7 7 7 6 6 6 6 6 6 6
12 11 11 11 11 10 10 10 10 10 9 9 9 9 9 9 9 8 8 8 8 8 8 8 7 7 7 7 7 7 6 6 6 6 6 6 6 6 6 6 6 6 6
11 11 11 10 10 10 10 10 9 9 9 9 8 8 8 8 8 8 8 8 7 7 7 7 7 7 7 7 6 6 6 6 6 6 6 5 5 5 5 5 5 6 6
10 10 10 10 10 9 9 9 9 9 9 8 8 8 8 8 8 8 8 7 7 7 7 7 7 6 6 6 6 6 6 5 5 5 5 5 5 5 5 5 5 5 5
10 10 9 9 9 9 9 8 8 8 8 8 8 7 7 7 7 7 7 7 7 6 6 6 6 6 6 6 5 5 5 5 5 5 4 4 4 4 4 4 4 4 4
10 9 9 9 8 8 8 8 8 7 7 7 7 7 7 7 7 7 6 6 6 6 6 6 6 5 5 5 5 5 4 4 4 4 4 4 4 4 4 4 3 3 3
9 9 8 8 8 8 7 7 7 7 7 6 6 6 6 6 6 6 6 6 5 5 5 5 5 5 5 5 4 4 4 4 4 4 3 3 3 3 3 3 3 3 3
8 8 8 8 7 7 7 6 6 6 6 6 6 6 6 5 5 5 5 5 5 5 5 4 4 4 4 4 4 4 4 3 3 3 3 3 3 3 2 2 2 2 2
8 8 7 7 7 7 6 6 6 5 5 5 5 5 5 5 5 5 4 4 4 4 4 4 4 4 4 4 3 3 3 3 3 3 2 2 2 2 2 2 2 2 2
7 7 7 6 6 6 6 5 5 5 5 5 5 4 4 4 4 4 4 4 4 4 3 3 3 3 3 3 3 3 3 3 2 2 2 2 2 2 2 2 2 2 2
6 6 6 6 6 5 5 5 5 4 4 4 4 4 4 4 3 3 3 3 3 3 3 3 2 3 2 2 2 2 2 2 2 2 1 1 1 1 1 1 1 1 1
6 5 5 5 5 5 4 4 4 4 4 3 3 3 3 3 3 3 3 3 2 2 2 2 2 2 2 2 1 1 1 1 1 1 1 1 1 1 1 1 1 1 1
5 5 5 5 4 4 4 4 3 3 3 3 3 3 2 2 2 2 2 2 2 2 2 1 1 1 1 1 1 1 1 1 1 1 1 1 1 1 1 1 0 0 0
4 4 4 4 4 3 3 3 3 3 2 2 2 2 2 2 2 2 2 1 1 1 1 1 1 1 1 1 1 1 1 1 1 0 0 0 0 0 0 0 0 -0 -0
4 4 3 3 3 3 2 2 2 2 2 2 2 1 1 1 1 1 1 1 1 1 1 1 1 1 0 0 0 0 0 0 0 0 -0 -0 -0 -0 -0 -0 -0 -1 -1
Wind_Speed
6 6 6 7 7 6 6 6 6 5 5 5 5 4 4 3 3 3 3 2 2 1 0 1 1 1 1 1 1 1 1 2 2 2 2 1 1 2 2 2 3 3 3
6 6 6 6 6 6 6 6 5 5 5 5 5 4 4 4 3 4 3 3 3 2 1 1 1 1 1 1 1 1 1 1 2 2 2 1 2 2 1 1 2 3 3
6 6 6 6 6 6 6 5 5 5 5 4 5 5 4 4 4 4 4 3 3 3 2 2 2 1 1 1 1 1 1 0 1 1 2 1 1 1 2 2 3 2 3
6 6 6 7 7 6 6 5 5 5 5 5 5 5 4 4 4 4 4 3 3 2 2 2 2 2 3 3 2 2 1 1 1 1 1 1 1 2 1 2 3 2 3
6 6 6 6 5 5 5 5 5 5 5 5 5 4 3 3 4 4 4 4 3 2 1 1 1 2 3 3 2 2 3 2 1 1 0 1 1 1 2 2 2 3 3
7 7 5 5 5 5 5 5 5 4 4 4 4 4 4 3 4 6 5 4 4 3 2 1 1 1 1 2 2 3 4 3 3 2 1 1 2 2 2 2 2 2 3
6 6 6 6 5 5 5 5 5 5 4 4 4 4 4 4 5 6 7 5 4 3 2 1 0 0 0 1 1 1 2 4 4 4 3 4 4 4 2 2 2 3 4
5 5 5 5 5 4 4 4 4 4 4 4 4 4 3 3 4 5 6 4 3 3 2 3 2 1 0 1 1 0 1 2 3 3 4 5 4 4 4 4 4 3 3
4 5 5 5 5 5 5 4 4 4 4 4 4 4 4 3 4 5 6 4 3 2 2 2 3 2 2 1 2 1 1 2 2 2 3 4 4 4 3 1 1 1 3
5 5 4 5 6 6 6 5 4 4 4 4 4 4 5 4 5 6 6 4 3 2 1 2 3 3 2 1 2 2 2 3 2 2 2 3 3 3 3 2 3 2 2
3 3 3 4 5 5 5 4 4 4 3 3 3 3 4 4 5 6 6 4 4 3 2 2 3 3 3 2 2 3 4 2 1 1 2 2 2 2 2 2 3 3 3
3 3 3 3 3 3 4 3 4 5 5 4 3 2 2 3 3 5 6 5 5 4 4 3 3 3 3 3 3 3 3 1 0 1 1 2 2 3 3 3 3 4 5
3 3 2 2 2 3 4 4 3 4 4 4 4 4 3 2 2 3 4 4 4 3 3 3 3 2 2 2 2 2 1 1 1 1 2 3 3 4 3 2 2 2 2
3 2 2 3 2 2 2 3 3 4 4 4 4 4 3 2 2 2 2 2 3 3 2 2 2 2 1 1 1 1 1 2 2 2 3 3 2 2 2 2 2 1 1
3 3 2 2 3 3 2 2 3 3 5 5 5 5 5 4 5 6 4 3 3 3 2 1 0 0 0 0 0 1 1 1 1 1 1 2 2 2 2 1 1 1 1
3 2 2 2 2 2 2 1 1 0 2 3 4 4 4 5 5 6 5 4 4 4 3 2 2 2 2 2 2 1 1 2 2 1 1 2 2 2 2 2 1 1 2
4 3 2 2 3 3 3 3 1 2 1 1 2 4 4 4 4 5 4 3 3 5 3 2 2 3 2 2 2 2 2 2 2 2 2 2 2 2 2 2 2 2 2
3 3 3 3 3 3 3 3 3 2 1 1 1 2 3 3 3 3 4 3 1 1 1 2 3 3 3 2 2 2 2 2 1 2 2 2 2 2 2 2 2 2 3
3 2 2 2 2 2 2 2 2 2 2 2 1 1 2 1 2 2 3 2 2 2 2 2 2 2 2 2 2 2 2 2 2 2 2 2 2 2 2 2 3 4 3
2 3 3 3 2 2 2 2 2 2 2 2 2 2 1 2 1 1 1 2 2 2 2 2 2 2 2 2 2 2 2 2 2 2 2 2 2 2 2 2 2 3 3
2 2 3 2 2 3 3 3 3 2 2 2 2 2 3 3 3 3 2 2 3 3 3 3 2 2 2 2 2 2 2 2 2 2 3 2 2 2 2 2 2 3 3
2 2 2 2 2 2 2 2 2 2 3 2 2 2 3 2 2 2 3 3 3 3 3 3 3 3 3 3 3 2 3 3 3 3 3 3 3 3 2 2 2 3 3
2 2 2 1 1 2 2 2 2 2 2 2 2 2 2 2 2 3 3 3 2 2 2 3 3 3 2 3 3 3 3 4 4 4 4 3 3 3 3 3 3 3 3
3 3 3 2 1 1 2 2 2 2 2 2 2 2 2 3 3 3 4 3 3 3 3 3 3 4 4 3 4 5 5 5 5 4 5 4 4 4 3 3 3 4 4
2 2 2 2 2 2 2 1 2 2 2 2 2 2 2 3 3 3 3 3 4 4 4 4 3 4 5 6 5 5 7 7 6 5 4 4 4 4 4 4 3 3 4
2 2 2 2 2 2 2 2 2 2 2 2 2 2 3 3 3 3 3 3 3 3 3 3 4 5 6 6 7 7 7 7 7 6 4 3 4 4 4 4 4 4 4
Wind_Direction
176 177 176 182 181 175 178 186 189 187 182 182 180 176 175 176 165 153 163 158 154 159 155 158 224 188 160 171 150 139 141 144 198 273 280 301 299 307 313 290 286 273 276
177 173 177 179 176 178 186 192 189 186 186 182 174 173 177 173 165 161 166 158 160 171 200 190 261 217 195 180 145 158 178 170 172 240 282 304 284 282 295 301 298 283 271
170 170 173 177 181 184 187 192 189 185 184 178 168 175 181 178 173 173 169 166 170 183 189 198 232 186 220 231 192 191 212 194 145 184 263 285 295 321 343 325 319 305 289
170 170 179 188 188 188 185 184 188 185 178 176 174 177 181 181 178 177 170 165 168 177 181 190 199 194 205 204 200 192 160 111 94 125 270 306 311 321 7 333 325 315 298
173 180 192 194 187 182 180 186 186 181 182 179 171 174 177 184 193 179 174 166 166 175 189 201 208 206 203 194 189 175 152 138 125 121 226 334 322 336 310 296 298 303 294
178 188 185 181 182 185 189 187 181 179 177 167 172 177 182 200 194 178 164 157 164 172 186 211 222 223 220 207 195 171 161 161 174 185 225 240 259 262 271 284 294 314 295
186 188 184 182 184 192 189 177 180 180 170 171 173 173 190 211 194 178 168 156 160 174 180 184 198 4 51 208 207 189 199 199 194 195 208 227 234 237 231 256 259 255 255
186 192 190 184 187 186 176 180 185 174 172 184 186 181 185 207 186 172 164 153 153 169 179 175 173 237 247 171 149 197 257 256 232 220 215 229 233 229 220 226 232 257 271
188 192 188 179 179 178 181 191 194 181 182 193 189 183 184 201 182 172 155 148 156 179 193 191 187 210 241 178 139 184 271 289 287 259 249 253 259 255 231 206 248 261 272
207 202 190 179 176 180 189 191 193 186 188 187 188 193 191 198 185 172 160 153 166 197 220 231 226 222 232 179 169 189 232 261 283 309 316 304 297 287 262 211 210 230 243
200 184 178 180 181 180 184 184 177 176 173 177 183 196 198 202 191 179 169 172 185 190 206 234 246 237 222 213 190 203 230 242 240 249 284 301 305 302 288 261 225 210 218
160 165 175 179 178 169 166 174 169 168 171 179 181 191 215 221 203 194 184 185 182 183 207 225 239 232 223 222 216 234 244 250 222 261 282 282 281 281 277 269 257 236 229
143 158 159 157 156 159 165 170 169 171 175 185 184 196 213 219 209 201 196 189 182 191 215 221 224 220 214 221 228 230 222 200 200 253 261 262 261 262 272 279 288 292 289
149 159 151 146 143 140 155 163 171 181 184 187 189 197 206 204 207 202 196 193 194 209 224 230 230 235 214 226 268 258 224 212 204 235 255 270 282 285 280 272 264 276 299
156 166 165 163 163 160 152 161 178 196 195 194 201 197 195 208 218 197 182 193 202 209 177 144 110 105 208 262 293 269 262 262 245 255 256 271 272 271 280 282 263 259 241
160 172 175 170 169 166 154 98 22 177 185 180 189 191 207 204 189 184 191 196 197 174 147 171 203 209 218 221 227 248 257 257 250 240 244 250 256 258 274 285 278 250 261
170 179 180 175 175 179 176 174 182 3 49 154 175 181 184 182 181 186 185 173 168 159 163 193 204 208 219 219 219 225 240 251 241 234 239 246 251 257 262 267 268 268 269
173 183 178 182 180 184 189 189 181 177 193 260 244 206 189 177 169 166 154 122 115 147 196 207 217 216 216 220 225 232 242 250 245 244 250 256 253 249 248 255 255 259 265
179 181 172 164 162 168 170 169 173 177 186 199 212 253 210 168 139 127 128 141 178 206 221 227 234 232 231 228 233 235 234 236 239 241 248 255 256 257 261 262 261 272 271
176 178 162 155 158 162 167 168 174 184 197 204 211 219 186 125 136 181 180 186 198 214 218 226 236 235 235 235 233 232 235 240 239 243 257 259 258 253 254 257 258 263 270
161 174 165 158 170 180 182 186 191 193 199 220 233 227 192 187 197 205 211 210 209 214 218 223 229 234 239 238 233 231 234 245 242 241 247 252 255 260 263 259 261 262 271
149 153 158 170 179 181 183 191 192 193 201 216 243 235 206 195 198 209 216 223 222 220 215 215 222 226 227 232 234 233 237 247 251 249 250 248 248 254 259 268 275 273 267
149 151 154 163 174 183 182 180 189 199 208 214 221 215 201 202 206 214 224 231 233 234 225 212 220 231 225 223 219 219 235 243 244 244 243 244 242 243 245 252 261 271 271
156 164 169 174 171 171 178 191 204 220 226 226 227 224 214 212 219 227 234 235 228 230 226 216 218 222 224 225 230 230 236 246 245 236 234 234 234 238 239 245 250 256 262
156 163 171 179 182 187 191 200 216 228 236 235 234 235 226 226 233 239 241 237 232 230 229 223 222 222 224 231 236 238 249 251 251 244 230 230 233 234 235 238 240 249 258
163 167 173 178 188 193 197 210 223 229 236 243 239 241 240 239 241 244 243 241 239 239 240 235 234 235 239 239 242 246 250 249 248 242 229 224 235 241 236 230 234 239 249
Height
1509 1511 1512 1513 1514 1516 1517 1518 1518 1519 1520 1520 1521 1521 1522 1522 1522 1522 1522 1522 1522 1522 1522 1522 1522 1522 1522 1522 1522 1522 1522 1522 1521 1520 1520 1519 1519 1518 1517 1517 1516 1515 1514
1506 1508 1509 1510 1511 1512 1513 1514 1516 1516 1517 1518 1518 1519 1519 1519 1520 1520 1520 1520 1520 1520 1520 1520 1520 1520 1520 1520 1520 1520 1519 1519 1519 1518 1517 1517 1517 1516 1515 1515 1514 1513 1513
1504 1505 1506 1507 1508 1509 1510 1511 1512 1513 1514 1515 1515 1516 1517 1517 1517 1517 1518 1518 1518 1518 1518 1518 1517 1517 1517 1517 1517 1517 1517 1517 1517 1516 1515 1515 1514 1514 1513 1512 1512 1511 1511
1500 1501 1502 1503 1504 1505 1506 1508 1509 1510 1511 1511 1512 1513 1514 1514 1515 1515 1515 1515 1515 1515 1515 1515 1515 1515 1514 1515 1515 1515 1514 1514 1514 1513 1513 1512 1511 1511 1511 1510 1509 1509 1508
1496 1497 1498 1500 1501 1502 1503 1504 1505 1506 1507 1508 1509 1509 1510 1511 1511 1512 1512 1512 1512 1512 1512 1512 1512 1512 1512 1512 1512 1512 1512 1511 1511 1510 1510 1509 1509 1508 1508 1508 1507 1506 1506
1493 1493 1495 1496 1497 1498 1499 1501 1501 1502 1503 1504 1505 1506 1507 1508 1508 1509 1509 1509 1509 1510 1510 1509 1509 1509 1509 1509 1509 1509 1509 1508 1508 1507 1507 1506 1506 1505 1505 1505 1504 1504 1503
1489 1490 1491 1492 1493 1495 1496 1497 1498 1498 1500 1501 1502 1502 1503 1504 1505 1506 1506 1506 1507 1507 1507 1506 1506 1506 1505 1505 1505 1506 1505 1505 1506 1505 1504 1503 1503 1502 1502 1502 1501 1501 1500
1486 1487 1488 1488 1489 1491 1492 1493 1494 1495 1496 1497 1498 1499 1500 1501 1502 1502 1503 1503 1503 1503 1503 1503 1503 1503 1502 1502 1502 1502 1502 1502 1502 1502 1501 1500 1500 1500 1499 1499 1499 1498 1498
1483 1483 1484 1485 1486 1487 1488 1489 1491 1491 1492 1494 1495 1495 1496 1497 1498 1499 1499 1499 1500 1500 1500 1500 1500 1500 1499 1499 1499 1499 1499 1499 1499 1498 1498 1497 1497 1496 1496 1496 1495 1494 1493
1479 1480 1480 1481 1482 1483 1485 1486 1487 1488 1489 1490 1491 1492 1493 1494 1494 1495 1496 1496 1496 1496 1497 1497 1497 1496 1496 1496 1496 1496 1495 1495 1495 1495 1494 1494 1493 1492 1492 1492 1491 1490 1490
1476 1477 1477 1478 1479 1480 1481 1483 1484 1485 1486 1487 1487 1488 1489 1490 1491 1492 1492 1492 1493 1493 1493 1493 1493 1493 1493 1493 1493 1493 1492 1492 1492 1491 1490 1490 1489 1489 1488 1488 1487 1487 1486
1473 1474 1475 1475 1476 1477 1478 1479 1480 1481 1482 1483 1484 1484 1485 1486 1487 1488 1488 1489 1489 1490 1490 1490 1490 1490 1490 1490 1490 1490 1489 1489 1488 1487 1487 1486 1485 1485 1484 1484 1484 1483 1483
1471 1471 1472 1472 1473 1474 1475 1475 1476 1477 1478 1478 1479 1480 1481 1483 1483 1484 1485 1485 1486 1486 1486 1487 1487 1487 1487 1486 1486 1486 1485 1485 1484 1483 1482 1482 1482 1481 1481 1480 1480 1480 1480
1468 1468 1469 1469 1470 1471 1472 1472 1473 1473 1474 1475 1475 1476 1477 1478 1479 1480 1480 1481 1482 1482 1482 1483 1483 1483 1483 1483 1482 1482 1481 1481 1480 1479 1479 1478 1478 1477 1477 1476 1476 1476 1475
1466 1466 1466 1467 1467 1468 1469 1469 1469 1470 1471 1471 1472 1473 1474 1474 1475 1476 1477 1477 1478 1478 1478 1479 1479 1479 1479 1478 1478 1478 1477 1477 1476 1476 1475 1474 1474 1473 1473 1473 1472 1471 1471
1463 1464 1464 1464 1465 1465 1465 1466 1466 1467 1468 1468 1469 1470 1470 1471 1472 1472 1473 1474 1474 1474 1474 1474 1474 1474 1474 1474 1474 1474 1473 1473 1472 1472 1471 1471 1470 1469 1469 1468 1468 1467 1467
1461 1461 1461 1461 1462 1462 1462 1463 1463 1464 1464 1465 1465 1466 1467 1467 1468 1469 1469 1470 1470 1470 1470 1470 1470 1470 1470 1470 1470 1469 1469 1469 1469 1468 1467 1467 1466 1465 1465 1464 1464 1463 1462
1458 1458 1458 1459 1459 1459 1460 1460 1460 1460 1460 1461 1462 1462 1463 1464 1464 1465 1466 1466 1466 1466 1466 1466 1466 1466 1466 1465 1465 1465 1465 1465 1464 1464 1463 1463 1462 1462 1461 1460 1460 1459 1458
1455 1455 1455 1456 1456 1457 1457 1457 1457 1457 1457 1458 1458 1459 1460 1460 1461 1461 1462 1462 1462 1462 1462 1462 1462 1462 1461 1461 1461 1461 1461 1460 1460 1460 1459 1458 1458 1457 1457 1456 1456 1455 1455
1452 1452 1453 1453 1453 1453 1453 1454 1454 1454 1454 1454 1454 1455 1456 1456 1456 1457 1457 1458 1458 1458 1458 1458 1458 1457 1457 1457 1456 1456 1456 1456 1455 1455 1454 1454 1453 1453 1453 1452 1452 1451 1451
1449 1449 1449 1450 1450 1450 1450 1450 1450 1451 1451 1451 1451 1452 1452 1452 1452 1452 1453 1453 1453 1453 1454 1454 1454 1453 1453 1452 1452 1451 1451 1450 1450 1450 1450 1450 1449 1449 1448 1448 1448 1447 1447
1446 1446 1446 1446 1447 1447 1447 1447 1447 1447 1447 1447 1447 1448 1448 1448 1448 1448 1449 1449 1449 1450 1450 1450 1449 1449 1448 1448 1447 1447 1446 1446 1446 1446 1445 1445 1444 1444 1444 1443 1443 1443 1442
1443 1443 1443 1443 1444 1444 1444 1444 1444 1444 1444 1444 1444 1444 1444 1444 1444 1444 1445 1445 1445 1445 1445 1445 1444 1444 1443 1443 1443 1442 1442 1441 1441 1441 1440 1440 1439 1439 1439 1439 1439 1438 1438
1440 1440 1440 1440 1440 1440 1440 1440 1441 1441 1441 1441 1440 1440 1440 1440 1440 1440 1440 1440 1440 1440 1440 1440 1439 1439 1438 1438 1437 1437 1436 1436 1436 1436 1435 1435 1434 1434 1434 1434 1434 1434 1434
1436 1436 1437 1437 1437 1437 1437 1437 1437 1437 1437 1437 1437 1436 1436 1436 1436 1436 1436 1436 1435 1435 1435 1434 1434 1433 1433 1432 1432 1432 1432 1431 1431 1431 1431 1430 1429 1429 1429 1429 1429 1429 1429
1433 1433 1433 1433 1433 1433 1434 1434 1434 1434 1434 1433 1433 1432 1432 1431 1431 1431 1431 1430 1430 1430 1429 1429 1428 1428 1427 1427 1427 1427 1426 1426 1426 1426 1426 1425 1425 1424 1424 1424 1424 1424 1425